Wind_Speed
8 7 8 8 9 11 13 14 14 15 16 15 10 7 9 8 9 11 8 12 9 5 5 7 9 10 11 12 12 11 9 10 12 11 9 8 12 12 11 12 11 11 10 11 11 11 11 11 11 13 15 15 13 13 16 19 21 21 23 23 23 25 23 22 23 23 22 22 20 19 19 20 17 15 17 19 20 20 16 16 19 19 18 17 16 16
8 8 9 11 13 14 14 14 14 16 18 14 9 7 10 8 6 9 6 9 9 5 4 7 11 12 12 12 12 12 12 13 11 9 9 11 10 12 14 13 13 10 9 12 13 12 13 13 14 16 17 17 15 15 17 20 21 20 21 21 22 25 23 20 21 21 22 22 20 19 19 19 17 14 15 16 18 19 16 17 19 18 17 16 17 16
8 8 12 14 14 13 13 13 12 14 16 11 6 7 9 7 5 9 8 5 6 4 3 6 10 11 12 13 13 12 11 11 13 10 9 11 12 10 14 13 11 11 9 11 11 11 13 15 16 18 19 19 16 15 17 19 19 19 19 19 20 22 20 19 18 19 20 20 18 18 18 17 15 12 13 14 17 18 14 16 18 17 15 16 17 16
7 10 16 16 13 13 13 11 8 8 10 7 5 7 8 9 8 7 8 8 5 1 1 6 10 9 11 11 10 10 11 11 13 16 11 11 11 10 12 15 13 14 12 12 12 11 12 14 16 18 17 17 16 14 15 17 18 18 18 19 19 19 19 18 17 18 19 18 18 18 17 15 14 12 12 13 16 16 13 15 17 15 14 15 15 14
10 14 16 15 15 15 12 8 7 6 6 6 8 10 9 11 11 10 10 8 5 1 3 6 9 7 9 12 12 11 12 13 14 16 15 12 12 11 11 14 15 15 13 13 15 13 11 13 13 10 5 3 6 10 14 17 18 18 18 19 19 19 19 19 18 18 17 18 18 17 16 15 13 12 12 13 15 16 14 15 15 14 14 13 12 12
13 14 8 10 12 11 9 7 9 8 6 8 10 12 13 14 14 14 13 9 6 6 8 9 8 6 9 14 15 13 13 16 15 15 16 13 12 11 10 10 13 15 13 13 15 14 12 12 12 10 8 4 3 10 15 19 18 17 18 18 19 18 18 18 20 19 17 19 19 16 17 17 14 12 13 15 17 17 15 15 14 13 13 12 11 12
10 14 8 7 7 5 7 8 10 10 7 7 9 12 15 16 15 16 14 10 7 7 7 9 8 5 7 9 10 11 12 15 14 15 15 13 11 12 10 8 10 14 15 13 13 15 12 12 15 13 14 17 15 17 19 18 18 17 17 18 19 19 18 17 19 20 16 18 19 15 17 19 15 14 14 15 17 18 16 14 14 13 13 12 12 12
9 15 11 10 9 7 8 9 9 11 9 7 9 12 14 15 16 16 13 9 8 8 9 11 10 7 7 7 10 13 13 13 11 7 6 8 9 8 2 3 3 3 12 15 14 16 15 13 16 16 16 22 27 24 19 18 19 17 17 19 20 19 18 16 17 19 15 15 17 15 15 15 13 14 15 14 15 16 15 14 13 12 12 13 12 12
9 13 10 10 9 7 8 10 11 12 10 8 11 12 10 9 11 11 8 8 8 8 9 10 10 9 8 7 9 13 12 12 6 4 8 7 7 6 8 11 11 11 3 12 12 12 15 15 17 22 23 27 28 23 19 21 22 21 20 20 20 18 16 15 13 15 14 12 14 14 13 12 12 13 16 17 15 13 13 13 13 11 12 13 12 12
8 9 10 9 8 8 9 11 12 12 10 9 12 12 9 5 6 8 8 8 8 8 9 10 10 8 7 6 7 9 5 5 4 8 10 9 11 11 11 11 10 13 7 8 8 7 9 14 21 28 28 27 27 23 22 24 22 22 21 19 19 17 15 16 14 15 17 14 14 16 14 13 15 15 15 18 15 12 13 13 13 12 13 13 12 12
7 7 9 9 7 8 11 10 11 11 8 8 9 9 7 5 6 7 7 7 6 8 10 12 12 10 8 7 5 3 3 8 6 6 7 8 10 10 11 11 9 11 8 10 12 9 8 12 19 24 24 25 24 20 20 23 22 20 20 19 19 18 17 20 19 18 21 18 15 18 19 17 19 18 17 18 15 13 14 14 14 14 13 13 13 12
12 8 8 6 3 5 10 10 10 9 8 7 6 5 5 5 6 7 7 7 7 8 10 13 15 13 9 6 1 6 10 11 8 6 8 8 8 9 9 9 9 10 8 10 9 7 7 7 9 9 11 16 20 19 16 18 19 17 17 18 19 18 17 19 21 19 20 20 18 20 21 20 20 19 18 19 17 15 16 15 15 15 14 14 13 13
11 11 10 7 6 9 11 8 8 10 9 8 7 6 6 5 6 7 6 6 7 7 10 12 12 10 5 3 5 10 11 11 10 8 10 10 9 10 10 9 8 7 8 11 8 4 2 2 5 6 9 13 15 16 15 13 14 14 14 16 19 19 18 20 22 22 22 20 19 21 20 18 19 19 18 17 15 15 17 16 16 15 15 14 13 12
8 11 13 12 9 10 12 9 7 8 9 8 8 7 7 6 6 7 6 6 7 6 8 11 10 8 3 5 9 10 10 9 8 7 8 8 8 8 8 7 6 4 6 10 6 1 2 2 3 2 6 6 5 9 12 11 13 14 17 19 20 19 20 23 25 25 26 24 21 21 19 17 20 21 19 18 15 14 16 16 16 15 14 13 12 12
9 9 10 11 8 11 13 12 10 8 7 8 8 8 7 7 6 6 5 5 6 4 7 8 6 5 3 2 5 9 9 6 7 7 6 5 6 6 6 6 5 5 7 10 4 2 5 4 4 5 4 6 5 9 11 9 11 13 17 20 21 20 19 22 25 26 29 31 28 25 21 20 23 23 21 21 18 13 14 16 16 14 13 13 12 12
10 8 8 12 10 11 13 12 12 11 8 8 9 9 8 7 6 5 4 5 4 3 5 5 3 3 3 4 5 7 8 7 6 6 6 5 6 7 7 7 8 8 7 10 7 2 7 7 4 4 2 3 9 12 12 8 8 10 15 19 21 23 23 24 26 26 29 33 32 30 27 25 25 23 22 21 19 15 14 16 15 13 13 13 13 13
8 7 9 12 10 11 13 12 12 12 7 5 7 9 8 9 8 5 5 5 4 4 4 4 3 1 5 3 6 6 7 7 5 4 5 4 6 8 7 6 6 6 5 7 7 5 8 5 2 6 8 12 16 11 3 7 14 17 19 22 24 26 27 27 26 26 29 32 33 34 33 30 27 24 23 22 21 17 15 15 14 13 13 13 13 14
6 6 8 12 11 12 12 12 13 13 9 5 5 7 8 9 8 5 4 5 5 6 5 6 6 3 4 1 5 6 6 6 4 4 4 4 7 7 4 5 5 4 3 7 6 3 4 2 2 4 10 13 12 7 8 15 23 23 20 22 25 24 26 29 27 26 30 33 35 38 38 33 28 24 23 23 21 17 16 16 15 13 14 14 14 14
4 5 8 12 11 11 11 11 11 12 13 10 7 6 5 6 6 5 5 5 6 6 4 7 8 2 5 1 1 4 5 6 6 4 5 8 8 4 1 2 4 5 3 5 5 3 1 1 5 6 8 8 7 8 14 20 22 18 16 20 21 17 20 27 26 25 29 30 30 36 39 34 29 26 22 22 21 20 20 18 15 15 15 14 14 13
3 4 6 9 10 9 8 8 7 8 11 12 10 8 5 4 4 3 3 4 6 6 4 7 6 2 4 2 3 1 2 4 6 5 8 10 7 5 4 4 3 4 6 8 8 6 5 2 2 4 5 7 17 16 17 17 15 14 13 15 15 13 16 23 24 23 26 26 24 28 35 35 32 27 22 21 22 22 21 18 16 16 15 14 13 13
6 4 4 6 8 8 7 7 8 9 9 9 9 8 7 5 4 4 4 4 5 4 4 6 3 2 2 3 4 2 2 3 3 6 8 5 5 8 9 9 8 9 11 11 10 10 9 10 10 7 8 8 12 12 12 12 11 11 10 11 13 13 13 17 19 21 24 26 25 25 32 36 34 28 22 22 23 22 20 18 17 16 15 14 13 13
2 4 4 5 6 8 7 8 9 9 7 7 7 8 8 7 5 6 6 6 6 4 4 5 1 3 2 5 6 5 4 5 5 6 4 3 7 10 10 12 12 11 11 11 11 12 11 12 15 14 14 11 5 1 2 4 4 5 5 5 7 9 11 12 16 22 25 25 25 26 29 34 34 30 25 23 22 21 20 19 18 17 15 14 14 13
4 0 4 5 6 7 6 4 5 9 11 10 9 7 8 8 7 8 6 4 5 3 3 2 2 4 3 6 8 6 6 5 5 6 5 6 8 10 10 11 12 11 12 12 11 12 12 15 17 18 17 14 8 6 6 5 4 0 4 3 4 7 10 12 17 23 24 23 24 25 28 32 32 31 31 27 24 22 20 19 18 17 16 14 13 13
2 2 4 5 5 7 8 6 5 6 10 8 5 5 6 5 7 7 4 1 2 2 1 1 1 3 4 6 8 4 1 4 6 7 8 9 8 10 11 10 10 11 12 12 11 11 13 17 19 19 20 20 16 11 7 9 11 6 3 6 8 10 12 16 21 25 24 23 25 26 28 30 29 32 33 30 27 24 21 20 18 17 16 14 13 13
2 3 4 6 5 5 6 6 6 4 5 4 4 8 11 13 15 11 4 3 2 4 3 2 0 2 3 5 6 4 3 6 8 9 10 10 8 8 9 8 9 10 11 12 12 12 13 15 16 17 19 20 20 17 12 11 12 7 6 7 7 7 11 16 22 25 25 24 25 26 28 28 28 31 32 30 28 26 22 20 19 17 15 14 13 12
2 1 2 5 5 4 4 3 3 4 3 4 7 10 13 16 16 10 3 3 3 5 2 2 2 3 3 5 7 6 6 8 10 11 11 10 8 7 7 7 8 9 10 12 12 12 13 13 15 18 19 19 20 19 16 15 12 7 9 10 9 8 9 12 18 23 24 23 24 25 26 26 26 28 29 28 27 25 22 20 19 17 15 13 13 12
1 1 2 3 3 2 1 2 5 8 5 5 8 11 12 13 14 9 3 3 3 5 3 3 4 6 6 6 7 7 7 8 10 11 10 9 9 8 8 9 10 10 11 11 12 13 13 14 15 18 19 19 20 19 18 18 17 13 9 10 10 10 10 12 15 16 18 21 23 25 25 23 24 26 26 26 27 24 22 19 18 17 16 13 13 13
1 1 3 5 4 3 1 2 4 10 7 4 8 9 11 12 13 11 6 3 2 4 2 4 5 7 8 7 8 8 8 8 10 10 10 10 10 10 10 11 12 13 12 13 13 14 15 15 14 16 19 20 20 21 20 19 20 19 15 10 8 9 9 9 12 12 16 21 22 23 23 22 23 25 25 25 25 24 22 19 18 16 14 13 13 13
1 1 1 2 4 3 1 0 2 6 8 4 8 8 9 12 12 10 7 7 4 1 2 6 8 8 7 8 9 9 8 9 10 10 10 11 12 12 13 13 13 14 14 15 15 15 15 14 13 16 19 20 20 21 21 20 21 21 20 17 11 7 5 4 5 8 17 21 18 19 23 23 23 25 24 24 24 22 21 20 17 14 13 13 13 12
2 1 2 2 5 2 1 1 4 3 8 4 9 10 10 12 11 10 9 10 9 8 7 9 11 9 6 7 9 9 9 10 10 10 11 12 13 13 13 13 14 14 15 15 15 14 14 13 14 16 18 19 20 20 19 19 19 20 22 22 17 10 4 3 5 10 17 19 16 19 24 24 24 26 24 23 23 21 20 18 15 13 14 14 13 12
1 1 2 2 5 1 2 1 3 5 3 5 13 15 12 12 11 10 10 9 8 7 6 8 9 7 5 6 9 10 10 10 11 12 12 12 12 13 13 13 14 14 14 14 13 13 13 13 14 17 18 19 20 20 20 19 18 20 25 26 23 18 14 13 12 11 13 14 14 17 22 21 21 24 24 22 23 21 19 17 12 11 14 14 13 12
1 0 2 1 5 1 2 2 4 9 7 9 15 16 13 11 10 9 9 9 8 7 4 5 6 4 4 6 9 10 11 12 13 12 11 10 11 12 12 13 13 14 14 13 13 13 13 13 14 16 17 18 19 20 20 20 20 22 26 28 27 24 21 20 17 13 12 13 13 14 17 17 17 21 21 21 21 20 19 15 10 11 15 15 14 14
1 2 1 2 3 1 3 3 4 6 5 4 9 11 10 10 9 10 11 11 10 7 4 4 5 5 6 8 9 10 12 12 12 11 9 9 10 11 12 12 13 13 13 13 13 13 13 13 14 17 18 18 20 20 21 22 23 23 25 28 29 28 26 24 21 19 18 17 17 16 17 17 19 22 22 21 20 19 18 16 13 14 17 16 16 17
2 3 2 2 2 1 4 4 2 1 2 1 5 6 7 8 10 12 11 11 11 8 5 6 7 7 9 9 9 10 11 11 11 10 11 10 9 9 11 11 12 12 12 13 13 13 14 15 16 17 18 20 20 20 22 25 26 25 26 28 30 31 31 28 24 22 22 22 21 20 20 20 22 25 25 24 23 22 21 20 20 19 19 18 18 18
2 2 2 2 2 1 3 3 3 1 2 3 5 8 7 6 10 14 13 13 12 10 8 8 8 8 8 8 8 9 9 10 12 12 12 11 9 9 9 10 11 12 12 13 13 14 16 18 18 18 19 22 23 21 22 25 27 28 28 28 30 31 31 30 28 25 25 26 25 23 23 24 26 27 27 27 27 26 24 23 23 22 20 20 19 17
3 3 2 2 3 2 1 2 1 2 4 3 5 9 8 6 6 8 10 12 13 10 8 7 7 7 7 6 7 7 8 9 11 12 13 11 10 10 9 8 10 11 11 11 13 15 17 19 19 19 19 23 26 25 23 24 26 28 29 29 30 30 29 32 33 30 28 28 27 25 25 25 27 27 26 26 26 25 23 22 23 22 19 19 18 16
2 2 3 3 3 2 1 4 3 5 4 4 4 6 6 5 4 3 4 8 11 10 8 7 6 6 5 4 4 5 6 5 7 9 11 12 11 11 11 10 10 11 12 14 15 16 17 17 18 19 20 23 27 27 26 24 24 26 27 29 31 31 30 33 34 31 30 30 28 27 26 25 26 25 24 23 23 21 20 20 20 19 17 16 15 14
2 2 4 3 2 2 2 4 4 4 3 4 5 5 5 3 2 1 2 4 9 10 8 7 6 4 3 3 2 2 5 0 5 6 9 12 11 10 11 12 13 14 15 16 17 18 18 18 18 18 20 23 25 26 26 25 25 27 29 29 29 30 32 33 33 31 30 29 28 27 27 27 27 25 24 23 21 20 19 18 16 15 13 12 12 12
4 3 2 3 2 2 2 1 2 2 2 3 6 7 6 2 0 1 2 2 7 9 8 7 5 4 4 5 6 4 1 1 4 4 6 9 10 9 10 11 14 16 17 18 19 19 19 19 19 19 20 22 23 23 25 26 26 29 31 30 29 30 31 31 30 30 29 28 28 28 28 28 28 27 25 23 21 21 21 19 17 16 15 13 13 13
5 4 3 3 3 1 1 1 3 3 3 5 8 7 6 3 1 2 1 2 6 8 8 7 6 7 7 6 6 6 5 4 4 3 5 7 9 11 12 12 14 16 17 19 20 20 20 20 21 21 21 20 19 19 21 26 28 29 29 29 30 31 29 27 26 26 27 28 28 28 27 27 27 26 25 23 21 20 20 19 18 17 18 17 15 14
2 1 2 2 0 3 4 4 3 3 3 7 9 7 5 2 1 0 2 3 5 7 7 8 7 7 7 6 5 5 6 6 6 5 6 8 9 11 14 15 16 16 17 18 18 19 20 21 22 23 22 21 20 18 18 22 26 26 26 28 30 29 25 24 25 26 27 27 27 27 26 26 25 24 23 22 21 19 18 17 16 16 17 16 15 13
3 2 1 2 3 3 4 4 4 4 4 9 10 6 6 3 1 2 4 3 6 7 7 8 8 8 8 9 8 7 7 9 9 8 8 9 9 10 14 16 17 17 17 18 19 19 19 19 21 22 22 23 24 22 21 21 22 22 23 25 26 24 23 24 25 25 26 27 27 26 26 25 25 24 23 22 21 20 19 17 15 15 15 14 13 12
4 3 2 4 3 2 4 4 3 3 5 11 8 4 6 4 2 4 4 5 7 7 7 8 8 8 9 10 10 9 9 9 9 8 8 8 9 11 13 14 15 16 17 19 20 20 19 19 19 20 20 20 22 23 23 24 22 21 21 22 22 21 22 24 25 26 26 25 25 25 25 25 25 25 24 23 21 21 19 16 15 14 14 12 10 9
6 4 2 3 3 1 4 4 2 1 4 8 6 5 6 6 5 5 5 6 6 7 7 7 8 8 10 10 10 9 10 10 9 8 7 7 7 10 12 13 14 15 17 18 20 20 19 18 18 18 19 19 19 20 21 21 20 20 20 19 19 20 21 23 24 26 27 25 23 22 23 24 25 25 24 22 21 20 17 14 13 12 11 10 8 7
5 6 6 5 4 4 4 3 2 2 3 7 9 8 9 9 8 7 8 7 6 6 7 7 8 9 10 10 10 10 10 10 9 8 7 6 6 9 11 12 13 13 14 16 18 18 18 18 16 16 16 17 18 18 17 17 16 16 16 16 16 18 19 20 21 23 23 23 22 20 19 20 21 21 20 18 18 18 16 14 12 11 10 9 8 7
3 4 5 6 6 7 7 5 6 7 9 10 10 10 10 10 9 9 9 8 7 7 7 7 8 9 9 9 10 9 9 9 9 8 8 7 7 9 10 10 11 12 13 14 15 15 16 16 16 16 15 16 16 15 14 14 14 13 12 13 14 15 16 17 19 20 20 20 20 19 19 19 18 18 17 16 15 15 17 16 13 12 12 11 11 10
5 3 5 6 6 5 5 6 8 11 12 12 11 11 12 12 10 9 9 8 9 9 9 9 9 9 9 9 9 9 9 8 8 7 7 7 7 8 9 9 10 11 11 12 13 13 13 14 14 14 14 14 15 15 13 12 12 11 11 12 13 14 15 15 16 16 16 16 16 16 17 18 16 16 17 17 14 14 16 16 14 12 11 12 12 13
6 5 7 9 7 6 8 10 11 12 12 11 10 10 10 11 12 11 10 10 10 10 10 11 10 9 9 9 9 9 9 8 8 7 7 7 7 7 7 7 7 8 8 10 11 11 12 12 12 13 12 11 11 13 13 12 11 11 10 10 10 12 13 13 13 13 13 13 13 13 14 14 12 11 13 17 17 15 16 16 14 12 12 11 11 12
7 7 8 10 10 9 10 11 12 11 11 11 11 10 10 10 11 11 11 11 11 11 10 11 11 10 9 9 9 9 8 8 8 8 6 6 7 7 6 5 4 4 4 6 7 8 9 9 10 11 11 10 9 10 11 11 10 9 9 9 9 8 8 9 12 12 11 10 10 10 10 10 10 8 8 10 13 15 16 17 16 15 14 13 11 11
8 8 9 8 8 7 7 9 9 9 8 9 10 11 11 10 10 11 10 10 10 10 10 10 10 10 10 10 9 8 7 7 7 6 5 5 5 5 5 5 4 3 3 5 5 5 5 7 8 9 10 11 11 10 9 9 9 8 8 8 9 9 8 7 10 11 10 10 10 9 8 8 8 7 6 6 7 9 13 16 17 16 16 15 14 12
6 7 8 7 7 8 9 10 9 8 8 8 9 10 9 9 10 10 10 9 9 9 9 9 9 8 8 8 8 7 7 7 6 5 5 3 2 2 2 2 2 2 2 2 3 3 4 4 5 6 8 11 12 12 11 9 9 8 8 8 9 10 9 8 8 8 8 8 8 7 7 6 6 5 5 4 2 3 7 12 14 14 14 13 13 13
Wind_Direction
207 211 217 220 224 223 219 226 240 247 250 264 293 299 274 260 234 235 190 159 176 204 217 248 265 256 260 268 270 271 255 233 214 194 232 228 164 166 172 164 170 177 164 156 170 178 175 181 182 185 179 170 174 184 188 184 178 175 176 174 173 172 168 164 160 153 152 157 160 158 159 165 167 166 166 164 170 179 179 172 176 185 188 187 186 188
208 223 226 223 226 230 228 223 232 252 260 270 295 289 272 270 259 255 221 160 156 168 223 259 271 264 259 260 263 266 265 267 255 203 203 233 210 176 174 176 175 178 166 163 167 160 170 184 182 183 179 173 183 196 193 187 183 180 179 176 174 171 170 173 164 153 158 164 162 159 163 169 166 162 163 161 166 173 176 172 175 184 187 184 183 186
208 227 233 230 230 231 236 232 223 241 257 263 269 261 262 268 272 270 254 189 156 165 221 262 271 267 259 252 250 252 249 259 269 253 201 214 241 209 177 178 174 172 178 178 162 153 175 180 177 184 183 178 186 195 192 188 184 183 180 176 174 172 174 176 165 160 167 167 159 155 162 170 161 153 161 164 167 169 173 174 174 181 187 185 183 184
206 222 227 225 231 235 234 236 233 250 258 253 247 246 251 257 264 267 248 223 219 228 352 292 285 274 272 272 265 261 256 252 259 262 238 201 231 236 187 175 174 171 177 178 167 168 180 174 175 185 186 181 181 187 192 188 181 179 179 175 172 174 174 168 164 169 172 164 157 153 159 165 158 156 162 166 171 170 170 172 173 180 185 188 186 183
228 233 221 210 220 230 227 222 227 254 261 242 241 247 251 251 250 256 255 253 257 222 169 246 274 270 264 265 262 259 252 249 247 254 254 219 212 232 208 181 175 173 177 177 171 173 179 174 168 164 163 177 191 197 193 186 182 177 178 175 171 173 171 166 169 175 174 165 158 155 157 157 152 159 165 169 174 175 173 170 175 187 186 185 187 184
240 251 226 208 225 218 212 219 216 227 249 244 233 235 249 258 259 262 272 283 269 233 208 224 252 258 245 243 246 246 236 237 233 232 249 244 218 220 224 200 176 173 182 180 172 172 176 163 135 121 142 154 259 245 210 190 186 179 176 175 171 172 171 169 176 181 179 171 164 159 162 163 158 162 172 179 178 175 177 179 181 187 184 183 187 184
235 253 231 216 241 195 200 231 220 218 235 250 238 225 231 245 258 264 275 287 273 260 267 266 273 279 259 253 259 262 251 240 224 212 226 240 232 221 224 223 190 177 180 178 170 171 168 142 117 120 151 162 183 216 214 195 186 180 178 177 174 175 173 171 180 185 180 173 172 168 169 172 168 169 178 184 181 174 176 184 183 182 185 185 182 179
218 243 225 205 232 218 216 236 222 218 226 242 246 239 231 231 240 246 251 265 273 278 281 272 270 276 269 274 283 285 287 269 240 224 234 240 246 235 216 357 316 182 170 171 169 168 159 130 124 136 157 175 185 196 202 193 186 183 181 178 176 177 172 166 180 187 177 171 177 176 172 173 170 174 179 179 181 181 180 184 182 182 185 180 177 177
210 237 219 185 218 232 225 236 227 218 226 242 245 256 263 250 251 262 257 252 258 262 266 260 255 260 259 254 260 267 285 282 257 36 25 10 354 358 36 32 7 6 95 167 165 158 145 125 139 159 171 184 187 188 193 191 187 182 179 178 174 172 162 151 169 188 183 173 172 171 169 169 169 172 177 179 183 184 180 181 183 183 182 178 177 176
205 228 232 204 213 239 234 235 234 221 222 243 250 266 284 264 257 280 276 262 259 250 251 253 251 265 274 264 257 255 286 337 13 49 41 27 18 12 21 30 19 6 23 133 111 90 118 131 152 169 178 185 186 186 190 190 188 181 177 174 167 161 149 143 156 179 189 185 169 172 178 176 174 169 173 181 180 180 181 182 185 184 181 177 173 171
234 204 232 234 210 228 241 236 235 233 231 242 250 262 268 242 240 261 262 263 266 254 252 255 251 253 265 276 286 281 55 57 52 40 38 35 24 15 13 18 14 5 31 98 94 96 130 147 161 174 183 186 187 190 189 187 187 179 173 171 161 155 150 148 155 170 187 192 178 183 191 185 180 174 173 177 174 182 186 180 183 184 179 173 169 169
250 221 219 256 250 237 251 242 229 229 230 238 242 245 250 234 225 234 238 235 239 250 256 257 253 248 253 272 299 82 58 48 48 30 25 26 21 21 14 11 14 17 55 89 86 104 129 142 160 180 193 190 192 198 194 184 181 174 175 171 151 146 154 154 156 165 181 190 188 191 195 191 187 180 176 179 179 184 183 178 182 181 173 171 169 168
239 235 211 209 227 235 245 242 225 218 213 224 229 220 236 241 226 227 226 225 236 247 253 257 259 252 253 353 61 82 64 46 46 32 20 16 14 20 9 3 16 24 69 82 67 52 40 114 148 189 214 200 195 197 189 172 165 156 152 152 142 148 165 164 161 164 169 180 192 195 195 198 195 183 178 184 184 181 178 178 179 176 172 169 167 166
216 234 218 198 197 214 232 238 227 216 201 210 226 217 222 233 235 233 226 237 249 256 272 277 270 250 222 50 47 66 71 63 63 52 34 20 13 20 6 359 5 0 64 85 93 141 253 241 122 170 231 229 230 211 190 162 149 141 132 139 147 157 172 171 168 169 168 170 184 191 193 203 200 189 184 184 179 176 178 179 178 176 173 168 165 166
215 230 223 217 198 184 213 237 242 235 207 205 228 233 229 232 245 246 234 244 253 271 299 294 282 264 230 127 65 74 78 65 66 70 61 33 20 25 11 6 1 356 65 96 96 344 284 289 64 73 10 332 281 229 212 177 138 137 141 144 152 161 173 178 176 176 173 169 172 181 188 200 203 198 192 184 174 174 181 182 179 176 172 168 166 166
228 236 225 231 221 185 198 226 244 248 228 204 215 228 234 237 246 256 259 272 284 290 288 280 309 7 96 94 57 70 79 67 61 67 67 53 40 35 22 15 4 0 51 101 119 184 267 294 13 76 45 285 226 226 233 204 144 145 157 153 159 169 176 181 181 180 174 166 166 173 181 192 200 197 190 183 174 174 185 185 178 172 169 168 167 164
228 241 232 230 228 215 206 207 227 244 245 218 211 222 231 236 243 248 252 263 268 266 261 247 266 106 118 67 25 48 70 64 53 60 70 65 56 48 26 6 354 346 24 83 114 185 227 235 196 173 186 206 212 218 214 161 176 188 178 164 168 177 182 186 187 182 173 166 166 171 177 186 191 187 185 180 169 171 186 184 175 169 165 164 162 158
224 242 240 231 222 225 224 210 215 230 243 249 230 229 229 230 241 246 241 240 234 246 251 231 233 158 126 323 354 15 39 47 32 45 63 58 63 59 14 335 341 332 21 85 109 213 255 279 273 201 201 214 214 192 148 167 189 192 175 170 176 180 185 188 187 182 174 171 171 170 171 177 180 180 181 171 163 175 186 176 167 164 160 158 157 154
224 249 241 232 220 214 223 225 219 218 226 238 245 245 238 227 230 227 232 241 236 245 254 241 238 106 92 176 325 345 356 8 353 12 45 39 46 55 41 340 331 317 346 79 107 166 168 285 287 283 260 230 185 196 209 202 200 192 172 175 182 186 190 188 184 179 174 175 178 171 166 169 171 174 177 168 168 181 179 168 162 160 156 153 152 153
199 248 245 233 222 206 210 226 233 220 215 225 239 242 245 252 248 229 228 237 240 243 251 252 245 87 60 64 102 97 353 353 331 0 37 33 20 13 44 47 350 350 16 31 37 39 55 68 217 244 265 176 156 182 218 220 218 214 194 180 178 184 192 189 184 178 173 178 185 174 165 164 164 168 175 172 173 174 167 164 162 157 155 151 151 154
187 204 239 236 222 217 212 210 228 234 214 210 228 236 234 238 234 225 221 221 243 262 263 263 260 102 36 23 67 116 115 74 31 39 37 19 11 20 30 29 20 23 23 22 22 22 26 23 23 32 34 78 134 169 200 214 225 220 200 182 179 179 182 189 190 182 177 181 187 179 167 164 161 164 170 169 168 167 164 163 159 155 154 151 153 156
159 191 233 245 227 225 220 205 226 257 255 219 217 231 236 237 234 234 232 214 215 240 256 258 240 101 54 29 41 28 33 60 80 89 80 24 30 31 27 23 20 19 19 19 17 17 21 18 17 27 41 56 74 78 154 204 223 211 207 189 182 181 180 189 191 184 180 181 185 182 172 165 160 159 163 166 167 166 162 159 157 157 155 153 155 153
41 155 242 252 242 241 244 239 265 309 303 257 233 242 243 242 244 243 249 234 211 238 280 274 132 112 67 54 61 37 8 19 52 82 76 51 41 34 30 24 17 16 18 19 15 15 17 16 19 21 27 41 46 18 354 342 6 187 239 231 196 200 195 194 189 183 182 182 184 183 175 166 159 156 161 167 169 165 158 157 158 158 154 153 154 150
14 245 242 247 249 254 268 270 258 306 312 276 262 319 307 301 302 279 271 288 213 229 309 344 96 106 70 73 88 83 11 36 45 50 49 47 44 34 30 24 17 18 18 16 15 15 15 16 19 18 16 22 30 29 6 354 10 14 274 226 203 202 198 193 188 187 189 186 185 183 175 167 160 159 163 166 166 162 158 158 159 157 154 154 153 151
292 249 238 240 239 241 261 266 236 242 305 316 6 1 357 5 357 337 340 42 291 243 176 138 75 86 66 72 89 90 73 60 46 41 41 42 44 37 29 24 23 25 22 18 16 14 16 17 17 17 16 14 16 20 20 8 3 343 279 254 238 228 212 197 190 193 195 190 186 181 172 167 165 163 163 162 159 158 158 157 156 156 155 155 155 154
293 287 257 251 246 232 236 266 274 267 297 343 7 9 14 21 15 353 337 54 358 287 217 138 127 137 112 82 85 76 62 59 46 37 35 35 38 40 38 33 29 31 28 21 17 15 18 20 17 16 16 14 13 11 11 11 2 326 276 273 280 281 260 225 205 198 194 192 191 181 170 167 164 161 160 158 155 156 157 154 155 156 156 157 157 152
9 326 299 292 297 300 220 214 282 286 293 348 5 17 28 30 30 25 16 64 14 305 306 64 103 129 115 81 73 63 52 55 50 40 32 25 22 24 39 42 31 31 32 24 19 17 18 19 17 15 13 13 13 8 8 11 7 353 319 289 283 291 289 264 238 212 192 193 193 181 170 166 162 158 157 156 153 153 154 154 159 158 155 157 156 149
129 311 346 359 345 318 250 205 285 294 295 350 5 14 38 40 43 50 42 25 354 269 285 75 102 111 92 63 54 51 47 50 49 40 31 24 16 14 29 37 30 27 26 23 22 19 18 17 13 14 15 13 12 10 9 8 5 4 6 356 319 301 294 269 254 231 198 194 192 177 167 163 159 156 154 153 151 150 152 157 161 158 155 157 152 148
235 192 91 10 321 303 290 232 23 318 302 2 23 15 45 50 49 61 41 13 34 91 62 77 91 88 69 49 46 47 46 48 46 38 32 26 19 16 22 27 26 25 23 22 21 18 17 16 11 13 16 14 14 13 12 9 6 7 14 20 10 330 293 257 244 207 188 187 181 165 157 154 155 154 150 149 150 148 149 154 158 158 159 156 150 149
274 216 152 244 279 285 27 17 90 1 300 354 45 35 56 64 59 64 47 24 48 76 83 89 87 75 56 46 47 47 47 49 44 37 33 28 21 19 23 25 24 25 25 23 20 17 17 16 13 14 17 17 17 16 14 13 10 12 20 24 22 25 59 133 150 159 170 175 168 155 150 148 150 153 150 147 149 148 146 150 158 161 157 153 150 150
238 9 75 334 292 223 123 265 81 62 3 47 50 36 44 62 60 55 43 27 36 61 97 114 97 79 71 64 53 45 44 45 40 34 31 28 24 22 24 26 25 25 25 23 20 19 19 19 17 16 18 20 21 20 20 17 14 18 28 29 25 35 73 111 130 138 151 162 161 152 148 146 147 151 150 145 145 148 145 148 162 162 150 147 145 141
254 348 90 269 277 258 96 349 38 68 77 62 43 28 26 44 58 60 50 40 29 17 32 84 79 66 80 81 62 47 43 44 40 33 27 27 26 26 27 27 26 27 26 23 23 23 21 21 20 19 20 22 25 26 24 25 25 25 30 34 33 38 63 91 105 99 100 119 130 133 138 140 135 136 139 140 140 141 139 145 167 160 143 138 134 129
326 286 247 247 269 330 66 46 53 80 102 56 28 22 21 35 59 68 53 43 37 15 8 56 48 31 49 64 60 49 43 43 40 32 26 26 27 29 32 32 32 33 30 29 30 28 26 25 22 23 25 27 28 29 30 34 36 33 34 40 43 45 51 64 82 87 85 94 104 112 123 127 118 115 122 131 135 136 136 138 139 131 124 118 117 121
323 292 285 283 263 174 100 99 109 122 145 73 24 18 26 46 68 72 55 38 33 30 42 63 51 40 47 56 62 63 55 49 45 37 30 30 30 34 36 35 38 40 38 37 36 32 30 28 26 26 27 29 29 28 35 42 42 41 44 47 50 50 46 47 58 72 78 82 87 95 107 112 107 105 110 118 124 127 129 129 122 115 112 111 114 117
279 295 276 257 270 193 130 157 210 242 112 101 49 23 24 57 81 82 67 43 30 28 37 51 51 48 57 67 75 80 77 65 54 43 36 34 35 39 42 39 38 39 39 37 37 37 34 31 31 27 25 31 34 31 36 43 44 45 47 50 52 52 50 47 44 49 63 73 76 81 89 97 99 101 105 110 115 117 117 119 119 115 112 111 111 110
256 272 262 245 260 247 209 231 212 112 104 101 51 27 20 28 60 77 68 44 28 20 23 41 53 51 61 83 92 100 106 89 64 43 33 35 40 42 43 40 34 33 31 26 29 37 39 38 38 33 28 36 41 40 39 42 46 48 46 47 50 49 50 52 45 38 46 58 65 72 77 85 92 95 99 103 107 108 107 108 112 113 114 113 111 110
317 295 278 266 256 245 73 67 104 135 112 68 38 22 18 22 18 30 71 53 32 23 22 35 51 49 54 79 103 141 152 109 63 40 23 27 43 48 44 39 36 35 29 22 24 32 38 42 43 38 35 40 43 44 43 43 46 49 46 45 47 45 45 50 47 39 40 45 54 63 69 76 84 89 95 99 100 100 100 100 105 111 118 119 115 111
315 274 269 271 264 249 154 119 133 158 125 51 20 358 359 25 18 336 136 74 32 27 32 39 50 58 59 51 32 224 214 169 49 34 12 20 37 46 45 43 41 40 36 30 29 29 30 36 42 40 38 41 42 45 48 49 48 50 48 44 44 44 44 44 43 41 41 43 48 57 64 69 74 78 85 90 92 93 96 98 100 106 114 118 118 117
235 204 248 267 254 279 261 187 97 104 107 27 1 343 343 16 75 242 179 83 26 22 26 33 48 53 40 28 15 356 296 112 75 37 12 25 38 41 46 47 42 40 38 36 36 34 30 31 38 40 40 40 40 42 48 51 50 50 50 46 44 45 44 42 42 42 43 44 48 54 60 65 68 69 71 77 83 88 92 95 96 100 106 109 110 113
252 203 206 251 245 306 39 78 66 84 78 12 347 333 346 23 175 224 190 57 27 22 20 24 41 43 28 29 35 30 36 76 94 65 36 43 46 43 42 42 41 40 37 36 39 40 37 36 37 38 37 36 35 34 41 50 52 50 49 47 46 46 44 43 46 47 46 47 48 51 55 60 63 63 64 68 73 78 86 92 94 97 100 99 99 100
307 242 199 217 103 79 102 109 95 97 49 351 332 333 360 2 236 238 49 37 29 33 32 30 41 49 45 51 62 60 67 83 94 88 63 51 45 40 37 36 38 42 40 37 38 40 41 41 40 40 38 36 37 33 34 44 49 47 46 46 46 44 44 47 50 52 51 51 50 51 53 56 58 60 62 66 67 69 75 82 86 92 95 95 96 94
354 347 105 98 49 65 111 116 114 113 35 341 326 341 8 345 226 78 59 53 48 50 51 49 55 67 72 76 82 89 95 93 88 81 67 55 48 42 39 37 35 34 34 36 38 39 42 42 41 41 39 38 40 42 42 45 46 43 43 44 44 42 44 48 51 52 53 53 52 51 52 54 56 57 59 63 64 64 64 64 69 79 84 86 91 92
349 327 87 70 28 62 108 94 99 110 15 345 332 351 18 19 104 105 83 76 70 67 69 67 70 76 81 86 90 91 92 90 85 80 75 68 61 54 48 42 38 33 30 31 34 38 43 44 41 40 38 37 38 41 43 46 45 42 41 42 42 43 46 49 51 52 52 51 49 49 48 50 53 54 53 54 56 57 58 57 60 68 74 76 82 89
350 336 84 69 358 20 90 68 61 108 14 12 30 71 64 63 95 107 95 86 78 76 80 80 82 86 89 92 94 92 90 89 84 79 75 69 66 63 56 48 44 39 34 30 31 35 40 44 44 43 41 40 40 39 38 39 40 40 41 40 41 44 48 50 51 51 50 49 48 47 47 47 49 50 50 49 49 50 52 54 57 63 70 76 78 85
26 43 76 70 39 52 81 98 129 128 72 60 70 85 86 83 85 86 89 90 86 86 90 91 91 91 90 93 93 89 88 88 84 79 74 65 60 62 59 55 50 44 37 33 33 36 38 40 41 44 43 41 40 40 40 40 41 40 39 38 41 46 49 51 52 51 48 48 48 48 49 50 48 49 50 50 50 48 46 45 45 46 53 59 63 74
117 91 76 85 100 93 89 111 118 96 84 80 81 85 87 86 85 86 88 91 92 95 98 97 95 92 88 90 92 88 84 84 84 82 78 74 69 64 60 57 50 42 34 32 32 35 40 41 40 41 43 40 37 36 39 42 43 44 43 41 42 48 51 51 53 54 51 50 49 47 47 51 52 51 52 54 54 51 48 48 46 46 50 52 52 54
151 133 80 101 137 125 91 101 103 92 89 89 85 84 83 82 82 85 88 93 96 99 101 100 98 97 94 92 90 88 86 82 79 77 72 72 74 70 64 57 46 36 31 30 29 31 36 40 40 40 42 41 36 33 33 38 41 44 48 49 48 50 54 54 54 55 55 55 55 51 48 52 57 56 54 56 56 53 52 52 49 46 48 47 48 50
139 123 89 90 103 101 98 103 98 89 90 91 89 90 89 87 87 87 89 95 96 96 97 96 95 95 92 90 89 87 84 79 74 72 69 65 64 64 65 62 49 37 33 32 32 33 34 34 34 34 36 40 42 38 33 33 38 42 43 47 49 50 55 59 58 56 56 55 55 54 52 53 58 59 57 58 59 59 59 57 51 48 48 46 47 52
112 113 105 102 104 102 106 111 105 94 88 84 86 93 98 101 103 103 102 103 101 97 94 91 92 93 92 93 93 89 83 76 71 69 66 63 60 54 52 55 53 40 30 30 32 33 32 30 28 24 20 21 34 42 37 31 34 39 40 39 37 39 53 68 67 60 55 49 46 46 47 47 51 59 61 59 60 63 66 65 61 58 59 58 57 59
106 122 125 120 115 112 115 118 112 103 94 89 91 95 98 104 108 106 103 103 102 102 102 100 101 103 102 98 95 91 87 81 75 71 67 61 55 45 34 33 36 22 13 20 19 13 17 23 23 17 10 6 12 26 36 33 29 32 41 44 36 28 35 65 76 69 60 51 44 41 43 44 47 55 60 55 57 66 72 75 74 72 72 70 67 65
74 109 116 109 102 102 104 103 100 99 101 104 103 101 101 105 105 103 104 105 102 102 105 108 109 107 105 103 99 93 89 90 89 85 80 67 59 60 47 37 47 35 9 1 350 342 354 10 10 7 3 1 3 8 15 22 19 14 24 43 44 32 28 43 62 69 70 67 56 49 55 55 46 50 64 69 83 106 97 90 87 85 85 86 83 78
Height
745 754 757 755 750 744 740 738 737 732 729 726 725 730 730 729 728 718 717 717 715 728 735 733 734 732 728 723 717 713 711 714 716 719 721 722 727 730 729 730 731 733 734 735 740 743 743 746 750 754 757 760 762 763 764 764 766 767 769 771 773 775 779 782 783 784 786 788 790 792 794 797 801 804 806 806 807 808 810 812 813 816 818 818 820 821
744 756 753 744 740 735 733 733 733 733 731 731 734 739 735 730 726 715 715 717 714 729 737 732 735 734 728 725 719 715 716 716 714 715 720 721 723 725 727 728 728 730 731 733 737 739 741 744 748 752 755 758 760 762 763 764 765 767 769 771 773 775 779 783 784 783 784 786 789 791 793 796 800 802 804 805 806 808 811 812 813 816 816 816 817 820
751 754 745 735 731 730 730 728 730 734 734 735 739 744 743 733 728 721 716 715 715 728 737 735 738 735 726 721 718 715 716 716 712 711 714 718 719 720 724 727 727 730 731 732 735 737 740 743 747 750 753 756 759 762 763 764 766 768 769 771 773 776 778 782 783 783 784 786 789 791 793 796 799 802 803 804 806 809 810 811 813 815 816 816 817 819
754 746 733 728 727 729 731 728 731 736 736 739 742 748 747 735 735 736 723 716 715 722 733 738 739 736 727 721 718 715 714 713 711 709 707 711 716 716 719 722 725 729 731 732 733 735 739 743 745 748 751 755 759 762 764 766 767 767 769 771 772 775 778 780 781 783 785 787 789 791 793 796 798 800 802 804 806 808 809 810 812 814 815 816 817 818
743 730 720 723 726 727 731 732 736 744 744 742 743 746 744 734 735 736 725 718 718 721 729 739 747 743 733 731 725 716 714 713 711 710 707 706 709 711 713 717 720 724 727 729 731 734 737 740 744 748 754 760 764 766 765 766 767 767 769 770 772 774 777 778 780 783 786 788 790 791 794 796 798 800 801 803 805 806 808 809 810 812 814 815 816 817
733 720 715 723 725 724 732 737 738 745 749 746 740 738 738 735 732 730 725 726 733 736 727 732 755 753 731 728 726 716 713 712 709 710 710 706 705 707 711 713 717 721 722 723 726 730 734 738 745 752 758 763 768 769 767 765 766 767 769 770 772 774 776 777 779 782 786 788 790 791 793 796 797 799 800 801 803 804 806 808 809 811 813 814 815 816
728 718 716 725 727 728 736 740 736 738 749 751 736 729 732 733 734 733 732 737 745 743 727 724 748 754 733 723 719 712 711 708 704 707 708 706 704 706 708 709 712 717 719 720 722 727 732 737 745 754 758 758 760 762 763 765 766 767 769 770 771 774 776 778 779 782 785 788 790 792 794 796 797 798 798 800 802 803 805 806 808 810 811 813 814 815
723 722 721 725 730 734 740 741 734 732 746 748 729 722 726 727 732 732 732 741 741 737 733 726 736 751 746 730 718 713 713 708 703 708 709 706 705 705 708 710 709 712 715 717 721 724 730 737 743 750 754 751 749 752 759 763 764 765 768 770 771 774 777 780 782 784 787 790 791 793 795 797 798 798 798 800 801 803 804 805 807 809 810 812 813 814
717 723 724 726 733 737 737 735 728 728 739 737 723 722 722 722 727 726 729 739 736 741 750 737 732 750 748 728 717 715 718 716 710 715 718 714 713 713 713 714 711 712 715 717 721 724 729 735 740 743 746 745 745 749 755 758 759 761 765 769 771 774 778 782 785 787 790 793 793 794 796 797 798 798 798 799 801 803 804 805 807 809 810 812 813 814
714 718 717 722 733 736 731 727 722 725 732 727 721 724 723 724 729 732 736 738 737 750 758 742 734 750 748 727 718 719 725 729 724 722 723 719 720 720 717 716 715 715 718 720 727 734 735 736 737 740 742 743 745 748 751 754 756 759 762 766 770 774 778 782 787 789 790 793 794 794 796 796 797 797 798 800 801 802 803 805 807 809 810 811 812 813
712 711 712 715 722 726 724 722 719 721 723 722 724 728 730 731 733 739 740 739 752 761 752 737 731 744 753 736 722 724 729 731 731 729 727 723 722 723 720 718 719 720 723 727 734 739 740 739 738 739 741 744 746 747 748 751 754 758 761 765 769 773 776 781 784 785 787 791 793 794 794 795 796 796 798 799 801 802 802 804 806 809 810 811 812 813
716 716 717 714 714 720 724 722 719 718 720 725 729 734 743 744 743 748 746 747 767 769 747 733 725 734 752 743 726 729 729 728 732 733 731 728 726 726 725 724 726 727 729 733 738 740 741 743 743 742 744 745 747 748 748 751 754 757 761 765 768 772 776 780 782 782 784 789 792 793 794 796 796 796 797 799 801 802 803 805 807 809 810 811 812 813
724 720 718 717 717 720 728 730 725 721 723 730 733 740 756 761 759 762 760 758 764 758 738 727 727 735 746 741 730 732 734 732 733 733 733 733 732 732 731 730 732 732 733 738 744 744 744 745 745 745 746 747 748 749 750 752 755 757 761 764 767 770 773 776 778 780 782 786 791 794 795 797 798 797 798 800 801 803 804 805 807 809 810 811 812 812
733 725 714 718 722 720 726 733 734 727 724 732 736 743 759 767 771 771 766 763 761 752 736 726 733 742 745 745 738 735 737 735 733 735 735 735 735 737 736 734 734 733 735 742 745 745 744 745 747 748 749 750 753 753 753 754 756 758 761 764 765 768 770 771 773 775 777 782 789 794 796 798 799 798 799 799 800 802 804 806 808 809 810 811 812 812
741 740 721 717 719 718 723 726 726 721 721 729 728 733 746 752 760 765 762 765 765 759 747 739 743 745 747 751 741 734 738 737 736 736 735 737 738 739 739 737 735 733 736 744 747 744 743 744 749 752 752 754 758 760 759 758 758 759 761 764 764 766 768 769 769 769 770 775 783 790 794 797 799 799 798 798 799 801 804 806 808 809 810 810 811 812
739 740 718 709 708 711 720 720 715 718 724 723 719 730 741 735 738 748 751 753 757 762 757 749 747 743 745 749 739 736 741 738 739 739 737 741 742 742 744 742 740 739 740 748 754 754 751 750 752 752 751 754 758 761 762 762 762 762 762 763 763 764 765 765 765 765 767 772 778 784 791 796 797 797 797 797 798 800 804 807 807 808 809 810 811 811
740 737 714 707 708 706 713 715 712 720 725 720 721 731 729 717 722 741 750 745 751 767 762 749 749 748 750 753 745 744 746 743 745 744 743 747 747 748 750 749 748 747 746 751 755 756 755 756 758 756 753 754 756 759 762 764 763 761 760 761 762 762 762 761 761 761 765 770 773 777 785 792 794 795 796 796 796 800 804 806 807 808 809 810 811 811
732 736 717 709 716 709 704 708 710 712 716 723 730 725 716 715 719 732 751 754 758 769 759 744 749 759 769 772 760 751 753 753 751 749 749 750 752 757 759 757 755 752 750 752 755 754 751 751 755 756 755 754 755 759 761 760 756 754 758 760 761 761 759 758 759 761 764 768 770 770 775 784 789 792 794 794 795 800 804 805 806 807 809 810 811 811
721 737 725 708 714 712 702 708 716 711 708 717 722 714 718 735 736 735 749 761 765 770 762 746 744 761 778 779 770 763 761 761 757 753 755 758 762 767 768 767 765 759 753 750 753 755 752 751 752 753 755 755 756 757 756 754 752 753 757 759 760 761 760 759 761 763 765 769 772 769 769 776 784 789 792 793 795 800 803 804 805 807 808 809 810 811
719 739 737 711 706 711 710 717 726 721 711 712 716 712 717 729 734 736 741 748 756 764 764 753 751 769 777 769 770 772 766 767 768 765 766 770 772 771 768 768 766 762 755 750 751 753 752 754 755 755 758 759 759 758 755 755 756 755 757 759 761 762 762 762 763 765 766 769 774 774 771 773 779 785 790 792 795 799 801 802 804 806 807 808 809 810
716 735 744 723 709 716 722 722 724 722 716 718 725 725 724 722 723 731 735 735 743 757 764 761 766 778 773 762 770 775 770 772 774 774 777 778 775 770 765 764 763 760 758 756 755 754 752 753 753 754 756 758 759 759 759 760 759 758 758 760 762 763 764 765 765 766 767 769 773 776 773 772 775 781 787 791 795 797 799 801 803 805 806 807 808 809
719 732 742 735 725 725 722 713 712 713 711 717 724 725 725 723 726 739 744 733 733 748 758 760 771 781 771 764 773 776 774 775 773 774 779 778 774 770 767 766 765 764 763 761 759 756 755 754 752 752 753 755 757 757 759 762 762 761 762 762 763 764 765 766 766 766 768 770 773 776 775 773 773 776 784 791 795 796 798 800 802 804 805 806 808 809
721 731 741 741 732 724 715 708 709 712 710 710 713 714 717 718 724 739 750 741 735 741 746 750 768 781 773 768 776 781 781 780 776 774 776 776 775 773 771 771 770 768 766 765 763 761 759 758 756 755 754 756 757 758 760 763 764 766 766 765 765 765 765 766 765 766 768 770 774 776 776 774 773 774 781 789 794 795 797 799 801 803 804 806 808 809
726 734 743 743 733 721 715 712 710 712 717 719 720 723 728 728 726 729 735 738 741 746 753 762 774 779 775 771 775 781 782 782 780 777 776 777 776 776 776 776 774 772 770 768 767 765 764 763 762 761 760 760 760 762 763 763 764 766 766 765 764 763 764 764 764 765 766 769 773 775 776 775 775 775 780 785 790 793 795 798 800 802 804 806 807 808
739 743 744 749 752 747 740 734 726 723 728 734 738 740 741 741 739 736 733 739 746 745 750 767 780 781 777 774 776 778 779 780 780 777 777 779 780 780 780 778 777 776 775 773 771 770 769 768 768 767 767 766 765 765 765 764 764 765 764 763 762 762 763 763 763 764 765 767 771 774 775 775 776 777 779 783 786 791 794 797 800 802 804 805 807 808
745 749 747 754 764 768 767 765 760 750 742 740 744 745 747 751 753 752 750 759 766 754 747 763 779 781 777 775 776 779 779 781 782 780 781 782 782 783 781 780 779 777 778 778 777 775 774 773 773 772 771 770 769 769 768 766 766 765 765 764 763 763 763 763 764 764 766 768 771 773 773 774 776 778 780 782 785 790 794 796 799 801 803 806 807 808
749 753 752 755 760 766 773 774 771 763 752 750 751 750 755 760 760 759 761 771 782 775 765 768 772 775 780 780 781 784 785 787 787 787 788 787 784 783 781 781 781 780 781 782 781 780 778 777 777 776 775 774 773 772 771 769 769 768 766 765 764 764 763 763 765 766 768 770 773 774 774 774 777 779 781 784 786 790 794 797 799 801 803 806 807 808
754 760 759 759 758 760 764 765 764 760 754 755 757 756 760 764 764 768 773 776 782 784 780 776 773 779 787 788 789 792 792 792 792 792 793 792 789 786 784 784 785 785 785 785 785 784 783 782 782 780 779 778 776 775 773 772 771 769 768 766 764 764 763 763 765 768 770 773 775 774 773 775 778 780 783 785 788 791 794 797 800 801 804 806 806 808
751 761 766 766 759 755 755 757 762 763 758 757 760 760 763 767 769 776 781 776 774 779 781 781 784 792 796 796 797 797 796 796 797 797 797 797 795 792 789 789 790 790 790 790 790 789 788 788 786 784 784 782 780 779 777 776 774 771 770 767 765 764 763 763 765 768 771 774 775 773 773 775 778 780 783 785 788 791 794 797 800 802 804 806 807 808
748 757 763 762 756 753 755 756 759 765 768 767 766 764 766 771 776 780 783 779 774 779 785 787 792 800 801 801 800 799 798 799 800 801 802 802 802 800 797 797 796 796 796 796 796 795 794 793 791 789 788 786 785 783 781 780 778 775 773 770 767 765 763 764 766 769 772 774 774 774 774 776 778 780 783 785 788 791 794 797 801 803 805 806 807 809
750 756 757 757 757 755 754 754 756 767 778 780 778 774 773 778 784 786 788 787 784 786 787 787 793 801 801 801 802 803 803 804 806 808 808 808 808 806 804 804 803 802 802 802 801 800 798 797 795 794 792 790 789 787 785 784 781 779 776 773 771 768 765 765 768 772 774 775 777 776 775 777 780 781 784 786 789 792 794 798 802 804 805 806 808 810
749 754 755 758 762 760 757 757 760 770 781 786 790 790 784 785 792 794 795 797 797 797 793 790 795 801 800 800 805 808 809 811 814 815 814 814 813 812 811 810 809 808 808 807 806 804 803 801 800 798 796 794 793 791 789 787 785 783 780 778 776 773 770 769 771 774 776 777 779 779 779 780 781 782 785 787 789 791 795 801 806 806 806 807 809 810
747 752 755 756 762 767 765 763 765 770 779 792 802 801 794 792 796 800 801 802 802 804 804 803 805 806 803 803 809 815 817 819 820 820 819 819 817 816 816 814 814 813 812 812 811 809 808 806 804 802 800 798 796 795 793 791 788 787 785 783 780 777 776 775 776 777 778 778 780 780 780 781 781 782 785 787 788 791 797 803 807 806 805 807 809 809
748 751 752 753 760 768 769 766 766 770 783 801 807 800 797 798 801 806 810 810 807 806 807 808 811 811 810 811 816 822 824 824 825 824 823 821 820 820 820 818 817 817 816 815 814 813 811 810 808 806 804 801 800 799 797 794 792 791 789 787 785 783 783 783 782 782 781 781 782 782 782 782 783 784 786 787 789 794 799 803 804 805 806 808 809 810
752 752 752 753 756 762 765 766 773 785 796 806 806 800 798 800 802 808 814 815 813 811 809 811 814 815 816 818 821 824 826 827 826 826 825 824 824 823 823 823 821 820 819 818 817 816 815 813 811 809 807 805 804 802 800 798 796 794 793 791 789 788 789 789 788 787 785 784 785 786 786 785 785 787 789 791 793 797 801 803 803 805 807 808 810 812
751 752 752 752 753 759 764 767 780 799 806 805 805 805 804 803 804 808 816 820 820 817 815 815 817 819 819 821 822 824 825 826 826 828 829 827 826 826 826 826 825 823 823 821 819 818 817 816 815 813 811 809 807 805 803 802 801 799 798 796 794 793 794 793 793 793 790 788 789 789 790 789 790 792 793 795 797 799 802 803 803 805 808 810 812 813
749 753 757 756 753 760 773 786 797 805 807 809 813 811 810 811 811 811 818 825 824 820 819 819 820 823 823 821 822 823 822 822 826 831 832 830 829 829 828 828 828 827 826 824 822 821 820 819 818 816 815 813 810 809 807 806 805 803 802 801 799 798 797 795 796 797 796 795 794 794 794 794 794 796 797 798 800 802 804 805 806 807 809 812 814 815
751 756 762 762 757 758 772 789 797 798 804 815 819 812 809 811 810 809 815 824 826 822 822 823 823 825 825 822 822 822 819 821 830 837 837 834 832 831 831 831 830 829 828 826 825 823 822 821 820 819 818 816 814 813 812 811 810 807 805 804 803 802 801 799 800 802 802 801 800 799 799 799 799 801 801 801 802 804 805 807 809 810 811 813 815 817
752 754 758 762 762 761 766 777 787 798 811 820 819 812 807 807 809 809 811 822 829 825 823 825 825 825 826 824 824 822 818 822 836 843 840 837 836 834 834 833 832 831 830 829 827 826 825 824 823 821 820 818 818 818 817 816 814 811 809 809 808 807 806 806 806 806 806 806 805 803 802 802 803 804 805 805 807 807 808 809 812 813 813 815 818 820
759 756 758 762 765 767 773 783 797 810 819 820 816 810 806 805 809 808 810 822 832 829 826 827 827 827 828 826 827 829 826 829 839 844 841 839 838 837 836 835 834 834 833 831 830 829 828 827 825 824 822 822 822 822 821 819 817 815 815 815 812 811 812 813 813 812 811 810 808 807 807 806 806 807 808 809 810 811 811 812 814 815 816 817 819 821
769 762 760 764 768 772 780 793 806 817 821 819 814 810 807 807 809 811 818 829 833 831 831 831 829 830 831 830 832 836 837 838 841 843 842 841 840 839 839 838 837 836 835 834 833 832 830 829 828 827 827 826 826 825 824 822 820 819 820 818 816 817 818 819 818 817 816 814 813 813 812 811 811 812 812 813 814 815 815 816 817 818 818 819 821 823
779 774 765 769 778 781 785 795 806 817 823 819 812 809 807 810 816 823 830 833 833 833 834 834 833 834 834 835 837 839 840 841 842 842 842 842 842 841 841 840 839 838 837 836 835 834 833 832 832 831 830 830 829 828 827 825 824 824 823 822 821 823 823 822 820 820 818 818 818 818 817 816 817 816 816 817 817 818 819 819 820 821 821 822 823 825
792 785 776 786 795 789 790 800 808 818 824 817 811 813 814 817 824 830 833 833 833 835 836 836 837 837 837 838 840 840 841 842 843 844 844 843 843 843 843 842 842 841 840 839 838 837 836 835 835 834 834 833 832 831 830 829 828 828 827 827 827 827 826 824 823 822 821 820 820 820 820 820 819 818 819 819 820 820 821 822 823 824 824 825 826 828
799 789 784 801 808 799 803 817 822 825 826 818 815 821 825 825 827 828 830 833 834 835 836 837 839 838 838 840 841 842 843 844 844 845 845 844 844 844 844 844 844 843 843 842 840 839 839 838 838 837 837 836 835 834 834 833 833 832 831 831 831 830 828 827 826 825 824 824 823 822 822 822 821 821 822 822 823 824 825 826 827 827 827 828 829 830
807 800 796 807 815 811 816 827 828 826 824 820 820 824 826 826 827 827 830 834 835 836 837 838 839 839 839 840 841 843 844 845 845 846 846 846 846 845 845 846 846 846 845 844 843 842 841 841 840 840 839 839 837 837 837 836 836 836 835 834 834 832 831 830 829 828 828 827 826 826 826 826 825 826 826 827 827 828 828 829 829 829 830 830 831 831
810 806 803 811 819 819 821 825 823 821 822 821 822 824 825 827 829 830 832 835 836 838 839 839 840 841 841 842 843 844 845 846 847 847 847 847 847 847 847 847 847 847 847 846 845 845 843 843 843 841 841 841 840 839 839 839 839 838 838 837 836 834 833 832 831 831 831 830 830 830 829 829 829 829 830 830 831 831 831 831 831 832 832 832 832 833
809 806 805 812 818 820 824 825 821 820 822 822 823 826 827 829 831 832 835 837 838 839 839 840 842 842 843 844 845 846 847 848 848 848 848 848 849 848 848 848 848 849 848 848 847 847 846 845 845 844 843 843 842 842 841 840 840 840 840 839 838 836 836 834 833 833 833 833 833 832 832 832 832 832 833 833 834 834 834 834 834 834 834 834 834 834
805 803 806 812 816 818 822 822 818 818 821 822 824 827 829 831 834 835 836 838 838 839 840 841 842 843 845 846 847 848 849 849 849 850 850 850 850 850 849 850 850 850 849 849 849 848 848 847 847 846 845 844 844 843 843 842 842 841 841 840 839 838 837 836 835 835 835 835 835 834 834 834 834 834 835 836 836 836 836 836 836 836 836 836 836 836
796 801 806 812 815 818 820 820 819 822 824 823 825 827 829 831 834 835 836 838 839 840 841 842 844 845 846 847 848 849 850 851 851 851 851 851 851 851 851 851 850 850 850 850 850 849 849 849 848 848 846 845 845 844 844 844 843 843 842 841 840 839 838 837 837 837 836 836 835 835 835 836 836 836 836 837 837 837 837 837 837 837 837 838 838 838
794 801 805 808 814 819 819 818 818 823 827 827 827 828 829 831 832 834 836 837 838 839 841 843 845 846 847 848 849 849 850 851 852 852 852 852 852 852 852 851 851 851 850 850 850 850 850 850 849 848 847 846 845 845 845 845 844 844 843 842 842 841 839 839 838 838 838 837 837 837 837 837 837 837 837 837 838 838 838 838 838 838 839 839 840 840
796 798 799 804 811 816 816 816 817 821 826 827 827 828 829 830 831 833 835 837 838 839 841 842 844 845 846 847 848 848 849 851 851 852 852 852 852 852 852 851 851 851 851 850 851 851 850 850 850 849 849 848 846 846 845 845 845 845 844 843 843 842 841 840 840 839 839 839 838 838 838 838 838 838 838 838 838 838 839 840 840 840 840 841 841 842